Regional Weather Roundup
Issued by NWS

Home | Current Version | Previous Version | Text Only | Print | Product List | Glossary On
Versions: 1 2 3 4 5 6 7 8 9 10 11 12 13 14 15 16 17 18 19 20 21 22 23 24 25 26 27 28 29 30 31 32 33 34 35 36 37 38 39 40 41 42 43 44 45 46 47 48 49 50
000
ASUS43 KTOP 182108
RWRKS

WEATHER ROUNDUP FOR KANSAS
NATIONAL WEATHER SERVICE GOODLAND KS
400 PM CDT WED OCT 18 2017

NOTE:  "FAIR" INDICATES FEW OR NO CLOUDS BELOW 12,000 FEET WITH NO
SIGNIFICANT WEATHER AND/OR OBSTRUCTIONS TO VISIBILITY.

KSZ001>006-013>018-027>032-041>047-182200-
NORTHWEST KANSAS

CITY           SKY/WX    TMP DP  RH WIND       PRES   REMARKS
GOODLAND       SUNNY     82  20  10 N10       30.04S
HAYS           MOSUNNY   85  32  15 N7        29.95S
HILL CITY      CLOUDY    82  31  15 N8        29.98S
RUSSELL        MOSUNNY   84  43  23 W8        29.93S
$$

KSZ061>065-074>080-084>089-182200-
SOUTHWEST KANSAS

CITY           SKY/WX    TMP DP  RH WIND       PRES   REMARKS
DODGE CITY     SUNNY     87  29  12 VRB3      29.98F
ELKHART          N/A     84  37  18 E3          N/A
GARDEN CITY    SUNNY     86  26  11 CALM      29.99S
GREAT BEND     SUNNY     80  49  33 S8        29.95F
LIBERAL        SUNNY     84  41  21 E6        30.00S
PRATT          SUNNY     82  43  25 S5        29.98R
$$

KSZ066>073-081>083-090>101-182200-
SOUTHEAST KANSAS

CITY           SKY/WX    TMP DP  RH WIND       PRES   REMARKS
CHANUTE        PTSUNNY   73  51  46 S10       30.02F
COFFEYVILLE    MOSUNNY   77  50  38 S15G23    30.02F
HUTCHINSON     MOSUNNY   80  50  34 S9        29.96F
MEDICINE LODGE   N/A     81  46  29 S9        29.96S
NEWTON         MOSUNNY   75  50  41 S17       29.98F
PARSONS        MOSUNNY   76  51  41 S8G20     30.04S
WICHITA INTL   PTSUNNY   78  50  37 S13       29.99R
WICHITA JABRA  MOSUNNY   77  49  37 S10       29.99S
WICHITA MCCONL SUNNY     78  46  31 SW14      29.99S
WINFIELD       SUNNY     79  47  32 S14G22    30.00S
$$

KSZ007>012-019>026-033>040-048>060-102>105-182200-
NORTHEAST KANSAS

CITY           SKY/WX    TMP DP  RH WIND       PRES   REMARKS
CONCORDIA      CLOUDY    73  51  46 S6        29.95R
EMPORIA        MOSUNNY   76  48  37 S15       29.97F
LAWRENCE       MOSUNNY   75  51  43 S12       29.98S
MANHATTAN      MOSUNNY   77  51  40 SW12      29.94F
MARYSVILLE     SUNNY     72  52  49 S8        29.95S
OLATHE IND     SUNNY     74  50  42 S14       30.00F
OLATHE EXE     SUNNY     73  49  42 S15G23    29.99F
SALINA         SUNNY     80  53  39 S9        29.94F
TOPEKA BILLARD SUNNY     76  49  38 S9        29.96S
TOPEKA FORBES  SUNNY     78  50  37 S15       29.96F
$$




USA.gov is the U.S. government's official web portal to all federal, state and local government web resources and services.